Wetterdaten: Dienstag, 21.10.2014
Datum Zeit Temp. A. Feuchte A. Luftdruck Regen Wind Richtung Richtung Sonnenschein ET UV Solar Taupunkt Windchill Windben Empfang
21.10.2014 00:00 13,7 C 84 % 1013,1 hPa 0,0 l/m 0,0 km/h (0 Bft) W-SW 255 0 min 0,000 mm 0,0 UV-I 0 W/m 11,0 C 13,7 C 0,0 km/h (0 Bft) 0,00 %
21.10.2014 00:15 13,6 C 84 % 1013,2 hPa 1,5 l/m 0,0 km/h (0 Bft) SW 228 0 min 0,000 mm 0,0 UV-I 0 W/m 10,9 C 13,6 C 0,0 km/h (0 Bft) 0,00 %
21.10.2014 00:30 13,8 C 84 % 1013,7 hPa 1,2 l/m 0,7 km/h (0 Bft) O-SO 103 0 min 0,000 mm 0,0 UV-I 0 W/m 11,1 C 13,8 C 4,0 km/h (1 Bft) 0,00 %
21.10.2014 00:45 13,6 C 84 % 1013,4 hPa 0,9 l/m 0,0 km/h (0 Bft) W-SW 253 0 min 0,000 mm 0,0 UV-I 0 W/m 10,9 C 13,6 C 0,0 km/h (0 Bft) 0,00 %
21.10.2014 01:00 13,5 C 84 % 1013,3 hPa 1,5 l/m 0,0 km/h (0 Bft) S 170 0 min 0,000 mm 0,0 UV-I 0 W/m 10,8 C 13,5 C 0,0 km/h (0 Bft) 0,00 %
21.10.2014 01:15 13,4 C 85 % 1013,6 hPa 0,9 l/m 0,4 km/h (0 Bft) S 188 0 min 0,000 mm 0,0 UV-I 0 W/m 10,9 C 13,4 C 4,0 km/h (1 Bft) 0,00 %
21.10.2014 01:30 13,2 C 84 % 1013,7 hPa 0,9 l/m 4,0 km/h (1 Bft) W-SW 253 0 min 0,000 mm 0,0 UV-I 0 W/m 10,6 C 13,2 C 7,9 km/h (2 Bft) 0,00 %
21.10.2014 01:45 13,1 C 84 % 1013,2 hPa 1,2 l/m 0,0 km/h (0 Bft) O 86 0 min 0,000 mm 0,0 UV-I 0 W/m 10,5 C 13,1 C 0,0 km/h (0 Bft) 0,00 %
21.10.2014 02:00 13,0 C 84 % 1012,9 hPa 0,6 l/m 0,0 km/h (0 Bft) W-SW 256 0 min 0,000 mm 0,0 UV-I 0 W/m 10,4 C 13,0 C 0,0 km/h (0 Bft) 0,00 %
21.10.2014 02:15 13,0 C 84 % 1012,8 hPa 0,3 l/m 0,0 km/h (0 Bft) S-SW 212 0 min 0,000 mm 0,0 UV-I 0 W/m 10,4 C 13,0 C 0,0 km/h (0 Bft) 0,00 %
21.10.2014 02:30 12,9 C 84 % 1012,9 hPa 0,0 l/m 0,0 km/h (0 Bft) N-NW 330 0 min 0,000 mm 0,0 UV-I 0 W/m 10,3 C 12,9 C 0,0 km/h (0 Bft) 0,00 %
21.10.2014 02:45 12,8 C 84 % 1012,9 hPa 0,3 l/m 0,0 km/h (0 Bft) NW 322 0 min 0,000 mm 0,0 UV-I 0 W/m 10,2 C 12,8 C 0,0 km/h (0 Bft) 0,00 %
21.10.2014 03:00 12,8 C 84 % 1013,2 hPa 0,9 l/m 2,2 km/h (1 Bft) W-SW 251 0 min 0,000 mm 0,0 UV-I 0 W/m 10,2 C 12,8 C 4,0 km/h (1 Bft) 0,00 %
21.10.2014 03:15 12,8 C 84 % 1013,4 hPa 0,6 l/m 0,4 km/h (0 Bft) O-SO 110 0 min 0,000 mm 0,0 UV-I 0 W/m 10,2 C 12,8 C 4,0 km/h (1 Bft) 0,00 %
21.10.2014 03:30 12,6 C 84 % 1013,2 hPa 1,8 l/m 0,7 km/h (0 Bft) W-SW 256 0 min 0,000 mm 0,0 UV-I 0 W/m 10,0 C 12,6 C 4,0 km/h (1 Bft) 0,00 %
21.10.2014 03:45 12,5 C 84 % 1013,1 hPa 1,5 l/m 0,0 km/h (0 Bft) SW 221 0 min 0,000 mm 0,0 UV-I 0 W/m 9,9 C 12,5 C 0,0 km/h (0 Bft) 0,00 %
21.10.2014 04:00 12,4 C 84 % 1012,8 hPa 1,2 l/m 0,4 km/h (0 Bft) N 352 0 min 0,000 mm 0,0 UV-I 0 W/m 9,8 C 12,4 C 4,0 km/h (1 Bft) 0,00 %
21.10.2014 04:15 12,3 C 84 % 1012,8 hPa 0,6 l/m 0,4 km/h (0 Bft) W-SW 254 0 min 0,000 mm 0,0 UV-I 0 W/m 9,7 C 12,3 C 4,0 km/h (1 Bft) 0,00 %
21.10.2014 04:30 12,2 C 84 % 1012,6 hPa 0,0 l/m 0,0 km/h (0 Bft) S 178 0 min 0,000 mm 0,0 UV-I 0 W/m 9,6 C 12,2 C 0,0 km/h (0 Bft) 0,00 %
21.10.2014 04:45 12,2 C 84 % 1012,6 hPa 0,3 l/m 0,0 km/h (0 Bft) N-NO 24 0 min 0,000 mm 0,0 UV-I 0 W/m 9,6 C 12,2 C 0,0 km/h (0 Bft) 0,00 %
21.10.2014 05:00 12,2 C 84 % 1012,6 hPa 0,3 l/m 0,0 km/h (0 Bft) W-NW 298 0 min 0,000 mm 0,0 UV-I 0 W/m 9,6 C 12,2 C 0,0 km/h (0 Bft) 0,00 %
21.10.2014 05:15 12,1 C 84 % 1012,8 hPa 0,3 l/m 0,4 km/h (0 Bft) W-NW 297 0 min 0,000 mm 0,0 UV-I 0 W/m 9,5 C 12,1 C 4,0 km/h (1 Bft) 0,00 %
21.10.2014 05:30 12,1 C 84 % 1012,5 hPa 0,3 l/m 0,0 km/h (0 Bft) S-SW 210 0 min 0,000 mm 0,0 UV-I 0 W/m 9,5 C 12,1 C 0,0 km/h (0 Bft) 0,00 %
21.10.2014 05:45 12,1 C 84 % 1012,5 hPa 0,0 l/m 0,0 km/h (0 Bft) O-NO 68 0 min 0,000 mm 0,0 UV-I 0 W/m 9,5 C 12,1 C 0,0 km/h (0 Bft) 0,00 %
21.10.2014 06:00 12,0 C 84 % 1012,4 hPa 0,0 l/m 0,0 km/h (0 Bft) SO 143 0 min 0,000 mm 0,0 UV-I 0 W/m 9,4 C 12,0 C 0,0 km/h (0 Bft) 0,00 %
21.10.2014 06:15 12,0 C 83 % 1012,3 hPa 0,0 l/m 0,0 km/h (0 Bft) NW 326 0 min 0,000 mm 0,0 UV-I 0 W/m 9,2 C 12,0 C 0,0 km/h (0 Bft) 0,00 %
21.10.2014 06:30 11,9 C 83 % 1012,1 hPa 0,0 l/m 0,0 km/h (0 Bft) O-SO 119 0 min 0,000 mm 0,0 UV-I 0 W/m 9,1 C 11,9 C 0,0 km/h (0 Bft) 0,00 %
21.10.2014 06:45 11,9 C 83 % 1012,2 hPa 0,0 l/m 0,0 km/h (0 Bft) SW 221 0 min 0,000 mm 0,0 UV-I 0 W/m 9,1 C 11,9 C 0,0 km/h (0 Bft) 0,00 %
21.10.2014 07:00 11,8 C 84 % 1012,2 hPa 0,0 l/m 0,0 km/h (0 Bft) W-SW 250 0 min 0,000 mm 0,0 UV-I 0 W/m 9,2 C 11,8 C 0,0 km/h (0 Bft) 0,00 %
21.10.2014 07:15 11,8 C 84 % 1011,9 hPa 0,0 l/m 0,0 km/h (0 Bft) W-SW 251 0 min 0,000 mm 0,0 UV-I 0 W/m 9,2 C 11,8 C 0,0 km/h (0 Bft) 0,00 %
21.10.2014 07:30 11,7 C 84 % 1012,0 hPa 0,0 l/m 0,0 km/h (0 Bft) S 189 0 min 0,000 mm 0,0 UV-I 0 W/m 9,1 C 11,7 C 0,0 km/h (0 Bft) 0,00 %
21.10.2014 07:45 11,5 C 84 % 1012,1 hPa 0,0 l/m 0,4 km/h (0 Bft) NW 308 0 min 0,000 mm 0,0 UV-I 4 W/m 8,9 C 11,5 C 4,0 km/h (1 Bft) 0,00 %
21.10.2014 08:00 11,6 C 84 % 1012,0 hPa 0,0 l/m 0,0 km/h (0 Bft) S 182 0 min 0,000 mm 0,0 UV-I 11 W/m 9,0 C 11,6 C 0,0 km/h (0 Bft) 0,00 %
21.10.2014 08:15 11,7 C 83 % 1011,8 hPa 0,0 l/m 0,0 km/h (0 Bft) NO 40 0 min 0,000 mm 1,0 UV-I 34 W/m 8,9 C 11,7 C 0,0 km/h (0 Bft) 0,00 %
21.10.2014 08:30 11,8 C 83 % 1012,0 hPa 0,0 l/m 0,4 km/h (0 Bft) W-SW 251 0 min 0,000 mm 1,0 UV-I 54 W/m 9,0 C 11,8 C 4,0 km/h (1 Bft) 0,00 %
21.10.2014 08:45 12,2 C 83 % 1011,9 hPa 0,0 l/m 0,0 km/h (0 Bft) S 183 0 min 0,000 mm 1,0 UV-I 61 W/m 9,4 C 12,2 C 0,0 km/h (0 Bft) 0,00 %
21.10.2014 09:00 12,4 C 83 % 1011,9 hPa 0,0 l/m 0,0 km/h (0 Bft) S-SO 152 0 min 0,000 mm 1,0 UV-I 95 W/m 9,6 C 12,4 C 0,0 km/h (0 Bft) 0,00 %
21.10.2014 09:15 12,7 C 82 % 1011,4 hPa 0,0 l/m 0,0 km/h (0 Bft) S-SW 198 0 min 0,000 mm 1,0 UV-I 65 W/m 9,7 C 12,7 C 0,0 km/h (0 Bft) 0,00 %
21.10.2014 09:30 12,9 C 82 % 1011,0 hPa 0,0 l/m 0,0 km/h (0 Bft) S-SO 150 15 min 0,000 mm 1,0 UV-I 169 W/m 9,9 C 12,9 C 0,0 km/h (0 Bft) 0,00 %
21.10.2014 09:45 14,2 C 76 % 1011,2 hPa 0,0 l/m 0,0 km/h (0 Bft) S-SW 205 0 min 0,000 mm 2,0 UV-I 173 W/m 10,0 C 14,2 C 0,0 km/h (0 Bft) 0,00 %
21.10.2014 10:00 14,0 C 75 % 1011,7 hPa 0,0 l/m 1,4 km/h (1 Bft) W-SW 253 0 min 0,000 mm 1,0 UV-I 128 W/m 9,6 C 14,0 C 4,0 km/h (1 Bft) 0,00 %
21.10.2014 10:15 13,7 C 75 % 1011,7 hPa 0,0 l/m 1,8 km/h (1 Bft) W 277 0 min 0,000 mm 2,0 UV-I 142 W/m 9,3 C 13,7 C 4,0 km/h (1 Bft) 0,00 %
21.10.2014 10:30 13,9 C 75 % 1011,5 hPa 0,0 l/m 0,0 km/h (0 Bft) SW 234 0 min 0,000 mm 2,0 UV-I 163 W/m 9,5 C 13,9 C 0,0 km/h (0 Bft) 0,00 %
21.10.2014 10:45 13,9 C 74 % 1011,4 hPa 0,0 l/m 5,8 km/h (2 Bft) SW 232 0 min 0,000 mm 2,0 UV-I 166 W/m 9,3 C 13,9 C 7,9 km/h (2 Bft) 0,00 %
21.10.2014 11:00 13,9 C 76 % 1011,5 hPa 0,0 l/m 0,0 km/h (0 Bft) S 189 0 min 0,000 mm 2,0 UV-I 224 W/m 9,7 C 13,9 C 0,0 km/h (0 Bft) 0,00 %
21.10.2014 11:15 14,4 C 71 % 1010,4 hPa 0,0 l/m 1,4 km/h (1 Bft) W-SW 255 0 min 0,000 mm 2,0 UV-I 205 W/m 9,2 C 14,4 C 4,0 km/h (1 Bft) 0,00 %
21.10.2014 11:30 14,6 C 71 % 1010,9 hPa 0,0 l/m 0,7 km/h (0 Bft) N-NW 345 0 min 0,000 mm 2,0 UV-I 180 W/m 9,4 C 14,6 C 4,0 km/h (1 Bft) 0,00 %
21.10.2014 11:45 14,6 C 71 % 1011,0 hPa 0,0 l/m 0,7 km/h (0 Bft) S-SW 194 0 min 0,000 mm 2,0 UV-I 202 W/m 9,4 C 14,6 C 4,0 km/h (1 Bft) 0,00 %
21.10.2014 12:00 14,6 C 71 % 1010,7 hPa 0,0 l/m 0,4 km/h (0 Bft) W-NW 299 0 min 0,000 mm 2,0 UV-I 162 W/m 9,4 C 14,6 C 4,0 km/h (1 Bft) 0,00 %
21.10.2014 12:15 14,7 C 71 % 1010,8 hPa 0,0 l/m 0,4 km/h (0 Bft) SO 138 0 min 0,000 mm 2,0 UV-I 185 W/m 9,5 C 14,7 C 4,0 km/h (1 Bft) 0,00 %
21.10.2014 12:30 14,5 C 72 % 1010,6 hPa 0,0 l/m 0,0 km/h (0 Bft) W-SW 252 0 min 0,000 mm 1,0 UV-I 86 W/m 9,5 C 14,5 C 0,0 km/h (0 Bft) 0,00 %
21.10.2014 12:45 14,1 C 74 % 1010,6 hPa 0,0 l/m 0,4 km/h (0 Bft) N-NO 30 0 min 0,000 mm 1,0 UV-I 131 W/m 9,5 C 14,1 C 4,0 km/h (1 Bft) 0,00 %
21.10.2014 13:00 13,6 C 74 % 1010,7 hPa 0,0 l/m 0,0 km/h (0 Bft) S 186 0 min 0,000 mm 1,0 UV-I 104 W/m 9,1 C 13,6 C 0,0 km/h (0 Bft) 0,00 %
21.10.2014 13:15 13,6 C 75 % 1009,7 hPa 0,0 l/m 0,4 km/h (0 Bft) SW 228 0 min 0,000 mm 2,0 UV-I 213 W/m 9,3 C 13,6 C 4,0 km/h (1 Bft) 0,00 %
21.10.2014 13:30 14,6 C 73 % 1009,5 hPa 0,3 l/m 0,0 km/h (0 Bft) O-SO 120 0 min 0,000 mm 1,0 UV-I 132 W/m 9,8 C 14,6 C 0,0 km/h (0 Bft) 0,00 %
21.10.2014 13:45 14,4 C 74 % 1010,1 hPa 0,0 l/m 4,3 km/h (1 Bft) W-SW 255 0 min 0,000 mm 1,0 UV-I 49 W/m 9,8 C 14,4 C 7,9 km/h (2 Bft) 0,00 %
21.10.2014 14:00 13,5 C 78 % 1009,8 hPa 1,5 l/m 0,0 km/h (0 Bft) NW 324 0 min 0,000 mm 2,0 UV-I 222 W/m 9,7 C 13,5 C 0,0 km/h (0 Bft) 0,00 %
21.10.2014 14:15 13,3 C 79 % 1009,4 hPa 0,0 l/m 0,0 km/h (0 Bft) S 187 0 min 0,000 mm 1,0 UV-I 104 W/m 9,7 C 13,3 C 0,0 km/h (0 Bft) 0,00 %
21.10.2014 14:30 13,6 C 80 % 1009,2 hPa 0,3 l/m 0,0 km/h (0 Bft) O-SO 123 0 min 0,000 mm 2,0 UV-I 239 W/m 10,2 C 13,6 C 0,0 km/h (0 Bft) 0,00 %
21.10.2014 14:45 14,5 C 77 % 1008,4 hPa 0,0 l/m 0,0 km/h (0 Bft) S 191 0 min 0,000 mm 2,0 UV-I 187 W/m 10,5 C 14,5 C 0,0 km/h (0 Bft) 0,00 %
21.10.2014 15:00 14,6 C 77 % 1008,1 hPa 0,0 l/m 0,0 km/h (0 Bft) S-SW 205 0 min 0,000 mm 2,0 UV-I 173 W/m 10,6 C 14,6 C 0,0 km/h (0 Bft) 0,00 %
21.10.2014 15:15 14,8 C 75 % 1007,9 hPa 0,0 l/m 0,0 km/h (0 Bft) S 176 0 min 0,000 mm 2,0 UV-I 103 W/m 10,4 C 14,8 C 0,0 km/h (0 Bft) 0,00 %
21.10.2014 15:30 14,8 C 73 % 1007,4 hPa 0,0 l/m 0,0 km/h (0 Bft) W-SW 251 0 min 0,000 mm 2,0 UV-I 132 W/m 10,0 C 14,8 C 0,0 km/h (0 Bft) 0,00 %
21.10.2014 15:45 14,9 C 74 % 1007,1 hPa 0,0 l/m 0,4 km/h (0 Bft) W-SW 252 0 min 0,000 mm 1,0 UV-I 114 W/m 10,3 C 14,9 C 4,0 km/h (1 Bft) 0,00 %
21.10.2014 16:00 14,7 C 74 % 1007,0 hPa 0,0 l/m 0,0 km/h (0 Bft) O-SO 121 0 min 0,000 mm 1,0 UV-I 138 W/m 10,1 C 14,7 C 0,0 km/h (0 Bft) 0,00 %
21.10.2014 16:15 14,9 C 74 % 1006,8 hPa 0,0 l/m 0,0 km/h (0 Bft) W 265 0 min 0,000 mm 1,0 UV-I 93 W/m 10,3 C 14,9 C 0,0 km/h (0 Bft) 0,00 %
21.10.2014 16:30 14,7 C 76 % 1006,2 hPa 0,0 l/m 0,0 km/h (0 Bft) S 172 0 min 0,000 mm 1,0 UV-I 116 W/m 10,5 C 14,7 C 0,0 km/h (0 Bft) 0,00 %
21.10.2014 16:45 14,9 C 76 % 1005,7 hPa 0,0 l/m 0,0 km/h (0 Bft) O 91 0 min 0,000 mm 0,0 UV-I 64 W/m 10,7 C 14,9 C 0,0 km/h (0 Bft) 0,00 %
21.10.2014 17:00 14,5 C 79 % 1005,7 hPa 0,0 l/m 0,0 km/h (0 Bft) O-SO 112 0 min 0,000 mm 0,0 UV-I 21 W/m 10,9 C 14,5 C 0,0 km/h (0 Bft) 0,00 %
21.10.2014 17:15 14,0 C 79 % 1005,8 hPa 0,0 l/m 0,0 km/h (0 Bft) W-SW 255 0 min 0,000 mm 0,0 UV-I 6 W/m 10,4 C 14,0 C 0,0 km/h (0 Bft) 0,00 %
21.10.2014 17:30 13,5 C 82 % 1005,7 hPa 0,0 l/m 0,0 km/h (0 Bft) O-SO 109 0 min 0,000 mm 0,0 UV-I 0 W/m 10,5 C 13,5 C 0,0 km/h (0 Bft) 0,00 %
21.10.2014 17:45 13,4 C 83 % 1005,0 hPa 0,3 l/m 0,0 km/h (0 Bft) S-SO 152 0 min 0,000 mm 0,0 UV-I 0 W/m 10,6 C 13,4 C 0,0 km/h (0 Bft) 0,00 %
21.10.2014 18:00 13,3 C 83 % 1004,7 hPa 0,0 l/m 0,0 km/h (0 Bft) O 84 0 min 0,000 mm 0,0 UV-I 0 W/m 10,5 C 13,3 C 0,0 km/h (0 Bft) 0,00 %
21.10.2014 18:15 13,1 C 83 % 1004,9 hPa 0,0 l/m 0,0 km/h (0 Bft) S 173 0 min 0,000 mm 0,0 UV-I 0 W/m 10,3 C 13,1 C 0,0 km/h (0 Bft) 0,00 %
21.10.2014 18:30 13,1 C 83 % 1004,7 hPa 0,0 l/m 0,7 km/h (0 Bft) O-SO 123 0 min 0,000 mm 0,0 UV-I 0 W/m 10,3 C 13,1 C 4,0 km/h (1 Bft) 0,00 %
21.10.2014 18:45 13,0 C 83 % 1004,6 hPa 0,0 l/m 0,0 km/h (0 Bft) S-SO 150 0 min 0,000 mm 0,0 UV-I 0 W/m 10,2 C 13,0 C 0,0 km/h (0 Bft) 0,00 %
21.10.2014 19:00 12,9 C 84 % 1004,5 hPa 0,0 l/m 0,4 km/h (0 Bft) S 177 0 min 0,000 mm 0,0 UV-I 0 W/m 10,3 C 12,9 C 4,0 km/h (1 Bft) 0,00 %
21.10.2014 19:15 12,8 C 84 % 1004,3 hPa 0,0 l/m 0,0 km/h (0 Bft) S 182 0 min 0,000 mm 0,0 UV-I 0 W/m 10,2 C 12,8 C 0,0 km/h (0 Bft) 0,00 %
21.10.2014 19:30 12,7 C 84 % 1003,8 hPa 0,0 l/m 0,0 km/h (0 Bft) S 181 0 min 0,000 mm 0,0 UV-I 0 W/m 10,1 C 12,7 C 0,0 km/h (0 Bft) 0,00 %
21.10.2014 19:45 13,0 C 82 % 1003,6 hPa 0,0 l/m 0,4 km/h (0 Bft) W-SW 255 0 min 0,000 mm 0,0 UV-I 0 W/m 10,0 C 13,0 C 4,0 km/h (1 Bft) 0,00 %
21.10.2014 20:00 13,7 C 78 % 1003,3 hPa 0,0 l/m 0,0 km/h (0 Bft) N-NW 334 0 min 0,000 mm 0,0 UV-I 0 W/m 9,9 C 13,7 C 0,0 km/h (0 Bft) 0,00 %
21.10.2014 20:15 13,9 C 77 % 1003,0 hPa 0,0 l/m 0,7 km/h (0 Bft) NO 36 0 min 0,000 mm 0,0 UV-I 0 W/m 9,9 C 13,9 C 4,0 km/h (1 Bft) 0,00 %
21.10.2014 20:30 13,8 C 77 % 1002,5 hPa 0,0 l/m 0,0 km/h (0 Bft) S-SW 195 0 min 0,000 mm 0,0 UV-I 0 W/m 9,8 C 13,8 C 0,0 km/h (0 Bft) 0,00 %
21.10.2014 20:45 13,6 C 77 % 1002,1 hPa 0,0 l/m 0,0 km/h (0 Bft) N 357 0 min 0,000 mm 0,0 UV-I 0 W/m 9,6 C 13,6 C 0,0 km/h (0 Bft) 0,00 %
21.10.2014 21:00 13,3 C 78 % 1001,7 hPa 0,0 l/m 0,0 km/h (0 Bft) W-SW 255 0 min 0,000 mm 0,0 UV-I 0 W/m 9,5 C 13,3 C 0,0 km/h (0 Bft) 0,00 %
21.10.2014 21:15 13,0 C 78 % 1001,2 hPa 0,0 l/m 0,0 km/h (0 Bft) SO 130 0 min 0,000 mm 0,0 UV-I 0 W/m 9,3 C 13,0 C 0,0 km/h (0 Bft) 0,00 %
21.10.2014 21:30 12,6 C 80 % 1001,1 hPa 0,3 l/m 0,0 km/h (0 Bft) SW 224 0 min 0,000 mm 0,0 UV-I 0 W/m 9,2 C 12,6 C 0,0 km/h (0 Bft) 0,00 %
21.10.2014 21:45 12,5 C 80 % 1001,1 hPa 0,0 l/m 0,0 km/h (0 Bft) O 81 0 min 0,000 mm 0,0 UV-I 0 W/m 9,1 C 12,5 C 0,0 km/h (0 Bft) 0,00 %
21.10.2014 22:00 12,3 C 80 % 1000,8 hPa 0,0 l/m 0,0 km/h (0 Bft) W-SW 242 0 min 0,000 mm 0,0 UV-I 0 W/m 8,9 C 12,3 C 0,0 km/h (0 Bft) 0,00 %
21.10.2014 22:15 12,0 C 81 % 1000,3 hPa 0,0 l/m 0,0 km/h (0 Bft) SO 132 0 min 0,000 mm 0,0 UV-I 0 W/m 8,8 C 12,0 C 0,0 km/h (0 Bft) 0,00 %
21.10.2014 22:30 11,7 C 81 % 1000,4 hPa 0,0 l/m 0,0 km/h (0 Bft) SO 138 0 min 0,000 mm 0,0 UV-I 0 W/m 8,5 C 11,7 C 0,0 km/h (0 Bft) 0,00 %
21.10.2014 22:45 11,6 C 81 % 999,9 hPa 0,0 l/m 0,0 km/h (0 Bft) SW 215 0 min 0,000 mm 0,0 UV-I 0 W/m 8,5 C 11,6 C 0,0 km/h (0 Bft) 0,00 %
21.10.2014 23:00 11,7 C 81 % 1000,2 hPa 0,0 l/m 0,0 km/h (0 Bft) S-SO 149 0 min 0,000 mm 0,0 UV-I 0 W/m 8,5 C 11,7 C 0,0 km/h (0 Bft) 0,00 %
21.10.2014 23:15 9,8 C 81 % 1005,1 hPa 0,6 l/m 13,3 km/h (3 Bft) W-SW 255 0 min 0,000 mm 0,0 UV-I 0 W/m 6,7 C 5,6 C 15,8 km/h (3 Bft) 0,00 %
21.10.2014 23:30 9,0 C 80 % 1007,1 hPa 0,6 l/m 15,5 km/h (3 Bft) N-NW 328 0 min 0,000 mm 0,0 UV-I 0 W/m 5,7 C 3,7 C 19,8 km/h (3 Bft) 0,00 %
21.10.2014 23:45 8,2 C 80 % 1007,6 hPa 0,6 l/m 9,4 km/h (2 Bft) NO 49 0 min 0,000 mm 0,0 UV-I 0 W/m 5,0 C 6,0 C 15,8 km/h (3 Bft) 0,00 %
_ Min-Zeit 23:45 11:15 22:45 - 00:00 - - - - - - 23:45 23:30 00:00 00:00
Minimum _ 8,2 C 71 % 999,9 hPa - 0,0 km/h (0 Bft) - - - - - - 5,0 C 3,7 C 0,0 km/h (0 Bft) 0,00 %
_ Max-Zeit 15:45 01:15 00:30 03:30 23:30 - - 09:30 00:00 09:45 14:30 00:30 15:45 23:30 00:00
Maximum _ 14,9 C 85 % 1013,7 hPa 1,8 l/m 15,5 km/h
N-NW (3 Bft)
- - 15 min 0,000 mm 2,0 UV-I 239 W/m 11,1 C 14,9 C 19,8 km/h
N-NW (3 Bft)
0,00 %
Durchschnitt _ 13,1 C 80 % 1009,0 hPa #21,6 l/m 0,7 km/h (0 Bft) W-SW - #15 min. #0,000 mm 1,5 UV-I 124 W/m 9,7 C 12,9 C 1,8 km/h (1 Bft) 0,00 %